CFTIW KCMX-KAZO

Flight info

Callsign CFTIW
Flight time N/A
Altitude 13000
Route DCT
Aircraft BE58/L-SDE3/1200

Departure

Time 2026-05-07 10:23
Airport Houghton County Memorial Airport (KCMX)

Arrival

Time N/A
Airport Kalamazoo/Battle Creek International Airport (KAZO)
Time Latitude Longitude Altitude Speed Heading
2026-05-07 10:13 47.16845 -88.49368 1076 ft 0 kts 280°
2026-05-07 10:16 47.16843 -88.49351 1076 ft 2 kts 280°
2026-05-07 10:16 47.16840 -88.49329 1076 ft 2 kts 280°
2026-05-07 10:17 47.16838 -88.49310 1076 ft 0 kts 280°
2026-05-07 10:18 47.16858 -88.49309 1077 ft 11 kts 39°
2026-05-07 10:18 47.16911 -88.49283 1080 ft 6 kts
2026-05-07 10:18 47.16964 -88.49253 1082 ft 11 kts 38°
2026-05-07 10:19 47.16968 -88.49180 1082 ft 9 kts 127°
2026-05-07 10:19 47.16906 -88.49073 1080 ft 18 kts 132°
2026-05-07 10:19 47.16805 -88.48901 1077 ft 23 kts 131°
2026-05-07 10:19 47.16756 -88.48772 1075 ft 10 kts 78°
2026-05-07 10:20 47.16790 -88.48646 1075 ft 15 kts 69°
2026-05-07 10:20 47.16822 -88.48524 1076 ft 7 kts 67°
2026-05-07 10:20 47.16823 -88.48520 1076 ft 0 kts 65°
2026-05-07 10:20 47.16840 -88.48458 1078 ft 11 kts 70°
2026-05-07 10:21 47.16872 -88.48332 1077 ft 20 kts 66°
2026-05-07 10:21 47.16932 -88.48122 1078 ft 21 kts 66°
2026-05-07 10:21 47.16977 -88.47990 1079 ft 9 kts 353°
2026-05-07 10:21 47.16967 -88.48034 1079 ft 0 kts 247°
2026-05-07 10:22 47.16949 -88.48091 1079 ft 21 kts 246°
2026-05-07 10:22 47.16818 -88.48539 1076 ft 80 kts 247°
2026-05-07 10:23 47.16514 -88.49546 1227 ft 120 kts 247°
2026-05-07 10:23 47.16218 -88.50643 1945 ft 106 kts 251°
2026-05-07 10:23 47.15921 -88.51553 2653 ft 96 kts 246°
2026-05-07 10:23 47.15508 -88.52254 3429 ft 85 kts 210°
2026-05-07 10:24 47.14882 -88.52066 3934 ft 110 kts 141°
2026-05-07 10:24 47.14529 -88.50988 4393 ft 127 kts 107°
2026-05-07 10:24 47.14235 -88.49742 4923 ft 128 kts 121°
2026-05-07 10:24 47.13741 -88.48708 5519 ft 120 kts 137°
2026-05-07 10:25 47.13202 -88.47765 6052 ft 122 kts 136°
2026-05-07 10:25 47.12656 -88.46801 6548 ft 122 kts 139°
2026-05-07 10:25 47.12053 -88.45933 7047 ft 121 kts 142°
2026-05-07 10:25 47.11391 -88.45215 7535 ft 116 kts 161°
2026-05-07 10:26 47.10648 -88.44785 8021 ft 115 kts 166°
2026-05-07 10:26 47.09904 -88.44324 8497 ft 116 kts 165°
2026-05-07 10:26 47.09156 -88.43852 8972 ft 117 kts 164°
2026-05-07 10:26 47.08409 -88.43373 9437 ft 118 kts 163°
2026-05-07 10:27 47.07658 -88.42888 9892 ft 118 kts 163°
2026-05-07 10:27 47.06904 -88.42401 10266 ft 119 kts 163°
2026-05-07 10:27 47.06141 -88.41906 10636 ft 120 kts 163°
2026-05-07 10:27 47.05372 -88.41406 11001 ft 122 kts 163°
2026-05-07 10:28 47.04597 -88.40898 11371 ft 123 kts 163°
2026-05-07 10:28 47.03814 -88.40389 11735 ft 124 kts 163°
2026-05-07 10:28 47.03025 -88.39877 12096 ft 125 kts 163°
2026-05-07 10:28 47.02239 -88.39365 12451 ft 126 kts 164°
2026-05-07 10:29 47.01438 -88.38845 12808 ft 127 kts 164°
2026-05-07 10:29 47.00608 -88.38312 13018 ft 140 kts 164°
2026-05-07 10:29 46.99644 -88.37707 13029 ft 160 kts 163°
2026-05-07 10:30 46.97470 -88.36294 12973 ft 180 kts 161°
2026-05-07 10:30 46.96310 -88.35536 12911 ft 183 kts 161°
2026-05-07 10:30 46.95146 -88.34776 12920 ft 183 kts 161°
2026-05-07 10:30 46.93981 -88.34020 12923 ft 183 kts 161°
2026-05-07 10:31 46.92818 -88.33265 12923 ft 183 kts 161°
2026-05-07 10:31 46.91649 -88.32508 12926 ft 184 kts 161°
2026-05-07 10:31 46.90482 -88.31752 12928 ft 183 kts 161°
2026-05-07 10:31 46.89314 -88.30997 12926 ft 184 kts 161°
2026-05-07 10:32 46.88850 -88.30697 12931 ft 184 kts 161°
2026-05-07 10:32 46.88261 -88.30316 12931 ft 184 kts 161°
2026-05-07 10:32 46.87091 -88.29559 12932 ft 184 kts 161°
2026-05-07 10:32 46.85920 -88.28803 12937 ft 184 kts 161°
2026-05-07 10:33 46.84751 -88.28048 12937 ft 184 kts 161°
2026-05-07 10:33 46.83584 -88.27294 12933 ft 184 kts 161°
2026-05-07 10:33 46.82413 -88.26539 12941 ft 184 kts 161°
2026-05-07 10:33 46.81241 -88.25783 12941 ft 184 kts 161°
2026-05-07 10:34 46.80068 -88.25027 12941 ft 184 kts 161°
2026-05-07 10:34 46.78896 -88.24272 12941 ft 184 kts 161°
2026-05-07 10:34 46.77739 -88.23526 12941 ft 184 kts 161°
2026-05-07 10:34 46.76565 -88.22770 12944 ft 184 kts 161°
2026-05-07 10:35 46.75388 -88.22013 12940 ft 185 kts 161°
2026-05-07 10:35 46.74214 -88.21258 12940 ft 185 kts 161°
2026-05-07 10:35 46.73039 -88.20503 12942 ft 185 kts 161°
2026-05-07 10:35 46.71862 -88.19747 12940 ft 184 kts 162°
2026-05-07 10:36 46.70688 -88.18993 12946 ft 184 kts 162°
2026-05-07 10:36 46.69517 -88.18241 12946 ft 184 kts 162°
2026-05-07 10:36 46.68341 -88.17487 12946 ft 184 kts 162°
2026-05-07 10:36 46.67166 -88.16733 12942 ft 184 kts 162°
2026-05-07 10:37 46.65993 -88.15981 12942 ft 185 kts 162°
2026-05-07 10:37 46.64817 -88.15228 12942 ft 185 kts 162°
2026-05-07 10:37 46.63640 -88.14474 12944 ft 185 kts 162°
2026-05-07 10:37 46.62462 -88.13719 12947 ft 185 kts 162°
2026-05-07 10:38 46.61284 -88.12966 12945 ft 185 kts 162°
2026-05-07 10:38 46.60108 -88.12214 12945 ft 185 kts 162°
2026-05-07 10:38 46.58933 -88.11463 12943 ft 185 kts 162°
2026-05-07 10:38 46.57754 -88.10710 12947 ft 185 kts 162°
2026-05-07 10:39 46.56576 -88.09958 12951 ft 185 kts 162°
2026-05-07 10:39 46.55397 -88.09205 12950 ft 185 kts 162°
2026-05-07 10:39 46.54216 -88.08452 12949 ft 185 kts 162°
2026-05-07 10:39 46.53037 -88.07700 12951 ft 185 kts 162°
2026-05-07 10:40 46.51857 -88.06948 12953 ft 185 kts 162°
2026-05-07 10:40 46.50675 -88.06195 12949 ft 185 kts 162°
2026-05-07 10:40 46.49497 -88.05445 12952 ft 185 kts 162°
2026-05-07 10:40 46.48331 -88.04703 12951 ft 185 kts 162°
2026-05-07 10:41 46.47147 -88.03950 12953 ft 186 kts 162°
2026-05-07 10:41 46.45965 -88.03198 12953 ft 186 kts 162°
2026-05-07 10:41 46.44781 -88.02446 12956 ft 186 kts 162°
2026-05-07 10:41 46.43599 -88.01695 12954 ft 186 kts 162°
2026-05-07 10:42 46.42418 -88.00945 12959 ft 186 kts 162°
2026-05-07 10:42 46.41234 -88.00194 12956 ft 185 kts 162°
2026-05-07 10:42 46.40052 -87.99444 12958 ft 185 kts 162°
2026-05-07 10:42 46.38871 -87.98695 12959 ft 185 kts 162°
2026-05-07 10:43 46.37690 -87.97947 12960 ft 185 kts 162°
2026-05-07 10:43 46.36506 -87.97197 12960 ft 186 kts 162°
2026-05-07 10:43 46.35323 -87.96448 12964 ft 186 kts 162°
2026-05-07 10:43 46.34139 -87.95698 12957 ft 186 kts 162°
2026-05-07 10:44 46.32957 -87.94951 12956 ft 186 kts 162°
2026-05-07 10:44 46.31774 -87.94203 12955 ft 186 kts 162°
2026-05-07 10:44 46.30590 -87.93455 12959 ft 186 kts 162°
2026-05-07 10:44 46.29405 -87.92707 12955 ft 186 kts 162°
2026-05-07 10:45 46.28223 -87.91960 12958 ft 186 kts 162°
2026-05-07 10:45 46.27036 -87.91211 12958 ft 186 kts 162°
2026-05-07 10:45 46.25852 -87.90464 12960 ft 186 kts 162°
2026-05-07 10:45 46.24668 -87.89718 12963 ft 186 kts 163°
2026-05-07 10:46 46.23483 -87.88971 12962 ft 186 kts 163°
2026-05-07 10:46 46.22296 -87.88224 12959 ft 186 kts 163°
2026-05-07 10:46 46.21110 -87.87478 12961 ft 186 kts 163°
2026-05-07 10:46 46.19926 -87.86732 12961 ft 186 kts 163°
2026-05-07 10:47 46.18757 -87.85997 12963 ft 186 kts 163°
2026-05-07 10:47 46.17572 -87.85252 12963 ft 186 kts 163°
2026-05-07 10:47 46.16386 -87.84507 12963 ft 186 kts 163°
2026-05-07 10:47 46.15197 -87.83760 12964 ft 186 kts 163°
2026-05-07 10:48 46.14010 -87.83015 12965 ft 186 kts 163°
2026-05-07 10:48 46.12822 -87.82270 12966 ft 186 kts 163°
2026-05-07 10:48 46.11635 -87.81525 12965 ft 186 kts 163°
2026-05-07 10:48 46.10444 -87.80779 12967 ft 186 kts 163°
2026-05-07 10:49 46.09256 -87.80034 12962 ft 187 kts 163°
2026-05-07 10:49 46.08063 -87.79287 12967 ft 186 kts 163°
2026-05-07 10:49 46.06873 -87.78542 12965 ft 186 kts 163°
2026-05-07 10:49 46.05684 -87.77798 12960 ft 187 kts 163°
2026-05-07 10:50 46.04494 -87.77054 12958 ft 187 kts 163°
2026-05-07 10:50 46.03300 -87.76308 12960 ft 187 kts 163°
2026-05-07 10:50 46.02108 -87.75563 12956 ft 187 kts 163°
2026-05-07 10:50 46.00915 -87.74818 12955 ft 187 kts 163°
2026-05-07 10:51 45.99722 -87.74073 12955 ft 187 kts 163°
2026-05-07 10:51 45.98529 -87.73329 12954 ft 187 kts 163°
2026-05-07 10:51 45.97336 -87.72585 12958 ft 187 kts 163°
2026-05-07 10:51 45.96145 -87.71843 12956 ft 187 kts 163°
2026-05-07 10:52 45.94951 -87.71099 12955 ft 187 kts 163°
2026-05-07 10:52 45.93759 -87.70356 12956 ft 187 kts 163°
2026-05-07 10:52 45.92564 -87.69613 12957 ft 187 kts 163°
2026-05-07 10:52 45.91373 -87.68871 12953 ft 187 kts 163°
2026-05-07 10:53 45.90178 -87.68129 12958 ft 187 kts 163°
2026-05-07 10:53 45.88982 -87.67385 12957 ft 187 kts 163°
2026-05-07 10:53 45.87785 -87.66641 12955 ft 187 kts 163°
2026-05-07 10:53 45.86605 -87.65909 12960 ft 187 kts 164°
2026-05-07 10:54 45.85392 -87.65156 12960 ft 188 kts 164°
2026-05-07 10:54 45.84194 -87.64413 12961 ft 188 kts 164°
2026-05-07 10:54 45.82998 -87.63671 12960 ft 188 kts 164°
2026-05-07 10:54 45.81797 -87.62927 12962 ft 188 kts 164°
2026-05-07 10:55 45.80616 -87.62195 12966 ft 188 kts 164°
2026-05-07 10:55 45.79419 -87.61454 12966 ft 188 kts 164°
2026-05-07 10:55 45.78217 -87.60710 12968 ft 187 kts 164°
2026-05-07 10:55 45.77022 -87.59971 12969 ft 188 kts 164°
2026-05-07 10:56 45.75822 -87.59229 12968 ft 188 kts 164°
2026-05-07 10:56 45.74623 -87.58488 12970 ft 188 kts 164°
2026-05-07 10:56 45.73425 -87.57748 12964 ft 188 kts 164°
2026-05-07 10:56 45.72225 -87.57007 12964 ft 188 kts 164°
2026-05-07 10:57 45.71025 -87.56266 12965 ft 188 kts 164°
2026-05-07 10:57 45.69824 -87.55525 12965 ft 188 kts 164°
2026-05-07 10:57 45.68625 -87.54786 12969 ft 188 kts 164°
2026-05-07 10:57 45.67441 -87.54056 12974 ft 188 kts 165°
2026-05-07 10:58 45.66243 -87.53317 12974 ft 188 kts 164°
2026-05-07 10:58 45.65042 -87.52578 12971 ft 188 kts 165°
2026-05-07 10:58 45.63840 -87.51839 12973 ft 188 kts 165°
2026-05-07 10:58 45.62636 -87.51099 12969 ft 188 kts 165°
2026-05-07 10:59 45.61434 -87.50359 12973 ft 188 kts 165°
2026-05-07 10:59 45.60230 -87.49619 12977 ft 188 kts 165°
2026-05-07 10:59 45.59028 -87.48881 12978 ft 188 kts 165°
2026-05-07 10:59 45.57824 -87.48141 12974 ft 188 kts 165°
2026-05-07 11:00 45.57028 -87.47653 12973 ft 188 kts 165°
2026-05-07 11:00 45.55825 -87.46915 12970 ft 188 kts 165°
2026-05-07 11:00 45.54622 -87.46177 12972 ft 188 kts 165°
2026-05-07 11:00 45.53416 -87.45437 12976 ft 188 kts 165°
2026-05-07 11:01 45.52215 -87.44702 12975 ft 188 kts 165°
2026-05-07 11:01 45.51012 -87.43965 12977 ft 188 kts 165°
2026-05-07 11:01 45.49810 -87.43229 12975 ft 188 kts 165°
2026-05-07 11:01 45.48606 -87.42492 12977 ft 188 kts 165°
2026-05-07 11:02 45.47405 -87.41758 12976 ft 188 kts 165°
2026-05-07 11:02 45.46203 -87.41024 12978 ft 188 kts 165°
2026-05-07 11:02 45.45000 -87.40289 12978 ft 188 kts 165°
2026-05-07 11:02 45.43797 -87.39554 12986 ft 188 kts 165°
2026-05-07 11:03 45.42591 -87.38818 12985 ft 188 kts 165°
2026-05-07 11:03 45.41391 -87.38085 12986 ft 188 kts 165°
2026-05-07 11:03 45.40200 -87.37359 12983 ft 188 kts 165°
2026-05-07 11:03 45.38999 -87.36627 12987 ft 188 kts 165°
2026-05-07 11:04 45.37797 -87.35895 12985 ft 188 kts 165°
2026-05-07 11:04 45.36594 -87.35162 12983 ft 188 kts 165°
2026-05-07 11:04 45.35393 -87.34431 12985 ft 188 kts 165°
2026-05-07 11:04 45.34191 -87.33700 12983 ft 188 kts 165°
2026-05-07 11:05 45.32991 -87.32970 12980 ft 188 kts 165°
2026-05-07 11:05 45.31792 -87.32241 12977 ft 187 kts 165°
2026-05-07 11:05 45.30592 -87.31512 12978 ft 187 kts 165°
2026-05-07 11:05 45.29393 -87.30784 12981 ft 187 kts 165°
2026-05-07 11:06 45.28194 -87.30056 12981 ft 187 kts 165°
2026-05-07 11:06 45.26996 -87.29329 12981 ft 187 kts 165°
2026-05-07 11:06 45.25797 -87.28602 12980 ft 187 kts 165°
2026-05-07 11:06 45.24599 -87.27876 12978 ft 187 kts 165°
2026-05-07 11:07 45.23399 -87.27149 12978 ft 187 kts 165°
2026-05-07 11:07 45.22201 -87.26423 12977 ft 187 kts 165°
2026-05-07 11:07 45.21006 -87.25699 12972 ft 187 kts 165°
2026-05-07 11:07 45.19806 -87.24974 12979 ft 187 kts 165°
2026-05-07 11:08 45.18608 -87.24249 12976 ft 187 kts 165°
2026-05-07 11:08 45.17410 -87.23525 12982 ft 187 kts 165°
2026-05-07 11:08 45.16209 -87.22800 12979 ft 187 kts 165°
2026-05-07 11:08 45.15009 -87.22075 12977 ft 188 kts 165°
2026-05-07 11:09 45.13810 -87.21350 12977 ft 187 kts 165°
2026-05-07 11:09 45.12611 -87.20627 12977 ft 187 kts 165°
2026-05-07 11:09 45.11412 -87.19905 12977 ft 188 kts 165°
2026-05-07 11:09 45.10211 -87.19180 12980 ft 188 kts 165°
2026-05-07 11:10 45.09010 -87.18457 12977 ft 187 kts 165°
2026-05-07 11:10 45.07811 -87.17733 12978 ft 187 kts 165°
2026-05-07 11:10 45.06670 -87.16807 12977 ft 193 kts 148°
2026-05-07 11:10 45.05788 -87.15336 12976 ft 200 kts 126°
2026-05-07 11:11 45.05082 -87.13643 12975 ft 200 kts 126°
2026-05-07 11:11 45.04362 -87.11984 12976 ft 200 kts 126°
2026-05-07 11:11 45.03634 -87.10306 12980 ft 200 kts 126°
2026-05-07 11:11 45.02906 -87.08626 12977 ft 200 kts 126°
2026-05-07 11:12 45.02178 -87.06945 12977 ft 200 kts 126°
2026-05-07 11:12 45.01449 -87.05264 12977 ft 201 kts 126°
2026-05-07 11:12 45.00722 -87.03584 12977 ft 201 kts 126°
2026-05-07 11:12 44.99993 -87.01902 12981 ft 201 kts 126°
2026-05-07 11:13 44.99266 -87.00221 12980 ft 201 kts 126°
2026-05-07 11:13 44.98526 -86.98556 12979 ft 200 kts 127°
2026-05-07 11:13 44.97781 -86.96891 12977 ft 200 kts 127°
2026-05-07 11:13 44.97038 -86.95230 12981 ft 200 kts 127°
2026-05-07 11:14 44.96295 -86.93568 12979 ft 200 kts 127°
2026-05-07 11:14 44.95561 -86.91893 12979 ft 200 kts 126°
2026-05-07 11:14 44.94849 -86.90247 12929 ft 197 kts 126°
2026-05-07 11:14 44.94129 -86.88586 12660 ft 199 kts 126°
2026-05-07 11:15 44.93406 -86.86921 12436 ft 198 kts 126°
2026-05-07 11:15 44.92686 -86.85262 12209 ft 198 kts 126°
2026-05-07 11:15 44.91969 -86.83610 12011 ft 197 kts 126°
2026-05-07 11:15 44.91254 -86.81965 11807 ft 196 kts 126°
2026-05-07 11:16 44.90540 -86.80323 11611 ft 196 kts 126°
2026-05-07 11:16 44.89827 -86.78689 11420 ft 195 kts 126°
2026-05-07 11:16 44.89117 -86.77061 11239 ft 195 kts 126°
2026-05-07 11:16 44.88407 -86.75440 11064 ft 194 kts 126°
2026-05-07 11:17 44.87698 -86.73820 10879 ft 193 kts 126°
2026-05-07 11:17 44.86993 -86.72211 10674 ft 193 kts 126°
2026-05-07 11:17 44.86287 -86.70601 10485 ft 192 kts 126°
2026-05-07 11:17 44.85586 -86.69003 10299 ft 192 kts 126°
2026-05-07 11:18 44.84892 -86.67426 10121 ft 191 kts 126°
2026-05-07 11:18 44.84191 -86.65835 9947 ft 191 kts 126°
2026-05-07 11:18 44.83494 -86.64251 9766 ft 190 kts 126°
2026-05-07 11:18 44.82798 -86.62673 9529 ft 189 kts 126°
2026-05-07 11:19 44.82104 -86.61106 9304 ft 188 kts 126°
2026-05-07 11:19 44.81413 -86.59548 9089 ft 186 kts 126°
2026-05-07 11:19 44.80728 -86.58005 8793 ft 186 kts 126°
2026-05-07 11:19 44.80045 -86.56473 8516 ft 184 kts 126°
2026-05-07 11:20 44.79364 -86.54950 8245 ft 183 kts 126°
2026-05-07 11:20 44.78688 -86.53441 7989 ft 182 kts 126°
2026-05-07 11:20 44.78013 -86.51942 7733 ft 181 kts 126°
2026-05-07 11:20 44.77341 -86.50455 7470 ft 180 kts 126°
2026-05-07 11:21 44.76671 -86.48978 7249 ft 179 kts 126°
2026-05-07 11:21 44.76024 -86.47490 7024 ft 178 kts 122°
2026-05-07 11:21 44.75448 -86.45952 6814 ft 177 kts 119°
2026-05-07 11:21 44.74910 -86.44396 6609 ft 176 kts 118°
2026-05-07 11:22 44.74390 -86.42877 6328 ft 173 kts 117°
2026-05-07 11:22 44.73865 -86.41352 5875 ft 173 kts 117°
2026-05-07 11:22 44.73344 -86.39849 5471 ft 170 kts 117°
2026-05-07 11:22 44.72785 -86.38399 5075 ft 167 kts 123°
2026-05-07 11:23 44.72192 -86.37014 4695 ft 164 kts 122°
2026-05-07 11:23 44.71604 -86.35653 4269 ft 162 kts 122°
2026-05-07 11:23 44.71021 -86.34313 3848 ft 160 kts 122°
2026-05-07 11:23 44.70438 -86.32989 3424 ft 158 kts 122°
2026-05-07 11:24 44.69858 -86.31687 3013 ft 156 kts 122°
2026-05-07 11:24 44.69278 -86.30402 2602 ft 155 kts 122°
2026-05-07 11:24 44.68696 -86.29129 2192 ft 154 kts 122°
2026-05-07 11:24 44.68115 -86.27871 1810 ft 153 kts 122°
2026-05-07 11:25 44.67534 -86.26626 1785 ft 151 kts 125°
2026-05-07 11:25 44.66871 -86.25524 1779 ft 141 kts 131°
2026-05-07 11:25 44.66252 -86.24587 1760 ft 117 kts 134°
2026-05-07 11:25 44.65697 -86.23864 1615 ft 104 kts 139°
2026-05-07 11:26 44.65205 -86.23277 1461 ft 87 kts 139°
2026-05-07 11:26 44.64755 -86.22741 1273 ft 81 kts 140°
2026-05-07 11:26 44.64329 -86.22235 1151 ft 83 kts 140°
2026-05-07 11:26 44.63873 -86.21695 1019 ft 88 kts 140°
2026-05-07 11:27 44.63395 -86.21129 841 ft 91 kts 140°
2026-05-07 11:27 44.62914 -86.20556 656 ft 88 kts 139°
2026-05-07 11:27 44.62527 -86.20092 626 ft 41 kts 140°
2026-05-07 11:27 44.62365 -86.19898 614 ft 18 kts 134°
2026-05-07 11:28 44.62361 -86.19808 615 ft 9 kts 43°
2026-05-07 11:28 44.62422 -86.19806 615 ft 10 kts 22°
2026-05-07 11:28 44.62431 -86.19773 616 ft 0 kts 143°